Tracking 28766 objects as of 13-Apr-2024
HD Live streaming from Space Station
objects crossing your sky now

STARLINK-5376

Track STARLINK-5376 now!
10-day predictions
STARLINK-5376 is classified as:


NORAD ID: 56142
Int'l Code: 2023-046BC
Perigee: 565.3 km
Apogee: 567.1 km
Inclination: 43.0 °
Period: 95.8 minutes
Semi major axis: 6937 km
RCS: Unknown
Launch date: March 29, 2023
Source: United States (US)
Launch site: AIR FORCE EASTERN TEST RANGE (AFETR)
Your satellite tracking list
Your tracking list is empty




NASA's NSSDC Master Catalog

Two Line Element Set (TLE):
1 56142U 23046BC  24103.86670253 -.00000021  00000-0  13487-4 0  9991
2 56142  43.0041 326.7477 0001251 271.4933  88.5766 15.02539302 57547
Source of the keplerian elements: AFSPC